Regional Weather Roundup
Issued by NWS

Home | Current Version | Previous Version | Graphics & Text | Print | Product List | Glossary Off
Versions: 1 2 3 4 5 6 7 8 9 10 11 12 13 14 15 16 17 18 19 20 21 22 23 24 25 26 27 28 29 30 31 32 33 34 35 36 37 38 39 40 41 42 43 44 45 46 47 48 49 50

000
ASUS43 KMPX 070101
RWRMN
WEATHER ROUNDUP FOR MINNESOTA
NATIONAL WEATHER SERVICE TWIN CITIES/CHANHASSEN MN
800 PM CDT MON JUL 06 2015


NOTE: "FAIR" INDICATES FEW OR NO CLOUDS BELOW 12,000 FEET WITH NO
SIGNIFICANT WEATHER AND/OR OBSTRUCTIONS TO VISIBILITY. N/A MEANS
CURRENT SKY AND/OR WEATHER CONDITIONS ARE NOT AVAILABLE.

MNZ060>063-068>070-070200-
   Twin Cities Metro

CITY           SKY/WX    TMP DP  RH WIND       PRES   REMARKS
TWIN CITIES    MOCLDY    71  55  56 NW12      29.96R SMOKE
ST PAUL        CLOUDY    69  56  62 N9        29.96R
CRYSTAL        MOCLDY    71  53  52 N12       29.96R
BLAINE         MOCLDY    70  54  56 N15       29.97R
LAKEVILLE      MOCLDY    68  55  64 N6        29.97R HAZE
EDEN PRAIRIE   CLEAR     69  52  54 NW16G25   29.96R
SOUTH ST PAUL  MOCLDY    70  55  58 N7        29.96R
LAKE ELMO      FAIR      68  54  60 NW6       29.97R
$$
MNZ001>005-007-008-013>017-022>024-027-028-070200-
   Northwest Minnesota

CITY           SKY/WX    TMP DP  RH WIND       PRES   REMARKS
BEMIDJI        CLOUDY    58  46  65 NW13      30.07S
HALLOCK        SUNNY     63  46  55 N8        30.11S
ROSEAU         CLOUDY    61  50  67 NW6       30.10S
WARROAD        CLOUDY    59  50  72 NW8       30.10S
THIEF RVR FALL CLOUDY    59  46  63 NW8       30.11S
CROOKSTON      SUNNY     61  46  59 N9        30.12S
FOSSTON        CLOUDY    57  45  62 NW9       30.11S
DETROIT LAKES  MOSUNNY   61  45  55 N8        30.10R
MOORHEAD       MOSUNNY   63  48  59 N12       30.10S
PARK RAPIDS    PTSUNNY   61  42  49 N14G22    30.07S
MAHNOMEN       CLOUDY    61  44  54 N18       30.09S
$$
MNZ006-009>011-018-025>026-070200-
   North Central Minnesota

CITY           SKY/WX    TMP DP  RH WIND       PRES   REMARKS
BAUDETTE       CLOUDY    58  44  60 N6        30.07R
FLAG ISLAND    CLOUDY    61  43  51 N10       30.06S
INTL FALLS     CLOUDY    57  43  59 N10       30.05S
WASKISH        CLOUDY    57  46  67 N6        30.08R
BIG FORK       CLOUDY    57  45  62 N8        30.05R
LONGVILLE      CLOUDY    59  46  63 N7        30.05S
GRAND RAPIDS   CLOUDY    59  43  55 NW16      30.03S
CRANE LAKE     CLOUDY    55  45  67 N6        30.04S
COOK           CLOUDY    57  46  67 NW3       30.03S
WALKER         CLOUDY    58  45  62 NW3       30.06S
$$
MNZ012-019>021-037-070200-
   Northeast Minnesota

CITY           SKY/WX    TMP DP  RH WIND       PRES   REMARKS
DULUTH         MOCLDY    62  46  55 N15G22    29.97R
ELY            CLOUDY    55  41  58 N9G22     30.01R
HIBBING        CLOUDY    59  45  59 N13       30.01S
DULUTH HARBOR    N/A     66  52  59 NW15      29.96R
TWO HARBORS    PTCLDY    64  52  63 N5        29.95R
SILVER BAY     PTCLDY    61  48  63 NW3       29.94R
GRAND MARAIS     N/A     62  49  62 N6        29.92R
G MARAIS ARPRT PTCLDY    55  45  67 NW9G17    29.96R
$$
MNZ029>031-032-039>041-046>048-054>057-064-070200-
   West Central Minnesota

CITY           SKY/WX    TMP DP  RH WIND       PRES   REMARKS
FERGUS FALLS   SUNNY     63  46  55 N15G21    30.07S
WHEATON        SUNNY     63  48  59 N14G20    30.09S
MORRIS         SUNNY     64  50  59 N13       30.06S
ALEXANDRIA     PTSUNNY   62  46  55 N12G23    30.08R
ELBOW LAKE     FAIR      63  47  56 N17       30.07S
WADENA         MOSUNNY   59  45  58 N10G17    30.07S
GLENWOOD       SUNNY     63  46  55 N13G20    30.06S
APPLETON       SUNNY     66  46  48 N13G22    30.07R
BENSON         SUNNY     64  45  48 NE13G22   30.06R
ORTONVILLE     SUNNY     66  48  52 N13       30.07S
MADISON        SUNNY     64  48  55 N10G21    30.07R
WILLMAR        FAIR      66  48  52 N13G25    30.07R
$$
MNZ033>034-036-042>043-049>051-058-059-070200-
   Central Minnesota

CITY           SKY/WX    TMP DP  RH WIND       PRES   REMARKS
ST CLOUD       CLEAR     63  47  55 N9G21     30.02R
SAUK CENTRE    FAIR      61  46  56 NW13G21   30.06R
PAYNESVILLE    CLEAR     60  46  59 W10G17    30.05R
AITKIN         CLOUDY    61  48  63 N8G18     30.02R
PINE RIVER     CLOUDY    61  46  59 N10G17    30.08S
BRAINERD       CLOUDY    61  45  55 N17G24    30.04S
STAPLES        PTSUNNY   59  45  58 N10       30.06S
LONG PRAIRIE   FAIR      59  45  58 NW9       30.06S
LITTLE FALLS   CLOUDY    61  43  51 NW8G18    30.04S
LITCHFIELD     CLEAR     66  48  52 NW14G20   30.04R
BUFFALO        PTCLDY    66  49  54 NW12      30.01R
MAPLE LAKE     PTCLDY    66  51  59 NW16      30.02R
$$
MNZ037-044-045-052-053-070200-
   East Central Minnesota

CITY           SKY/WX    TMP DP  RH WIND       PRES   REMARKS
PRINCETON      CLEAR     64  52  63 NW12G21   30.01R
MORA           MOCLDY    61  46  59 NW14G20   30.02R
CAMBRIDGE      CLEAR     66  52  59 NW10G18   29.98R
RUSH CITY      CLEAR     64  51  61 NW10G20   29.98R
MOOSE LAKE     PTCLDY    61  46  59 N6        29.98R
HINCKLEY       FAIR      63  48  59 NW15G23   29.99R
CLOQUET        CLOUDY    61  45  55 NW12G18   29.98S
MCGREGOR       CLOUDY    61  46  59 NW13      30.02S
$$
MNZ071>073-080-081-089-090-097-098-070200-
   Southwest Minnesota

CITY           SKY/WX    TMP DP  RH WIND       PRES   REMARKS
GRANITE FALLS  SUNNY     65  49  57 N14       30.08R
CANBY          SUNNY     65  51  58 N7        30.08R
MARSHALL       SUNNY     64  48  55 N14       30.06R
REDWOOD FALLS  CLEAR     67  49  52 NW12G26   30.04R
OLIVIA         CLEAR     64  46  52 N12       30.04R
PIPESTONE      SUNNY     66  52  59 NE9G18    30.09R
WINDOM         CLEAR     64  52  63 N15G26    30.06R
WORTHINGTON    CLEAR     64  50  59 N14G25    30.08R
JACKSON        CLEAR     68  54  60 N15G28    30.04R
TRACY          SUNNY     65  52  62 N12       30.08R
SLAYTON        SUNNY     64  53  68 N14G21    30.08R
$$
MNZ065>067-074>077-082>085-091>093-070200-
   South Central Minnesota

CITY           SKY/WX    TMP DP  RH WIND       PRES   REMARKS
MANKATO        CLEAR     70  54  56 NW16      29.99R
NEW ULM        CLEAR     66  50  55 N12G18    30.02R
ST JAMES       CLEAR     70  55  60 NW13      30.04R
FAIRMONT       CLEAR     70  52  52 N17G23    29.99S
GLENCOE        CLEAR     68  55  62 NW13      30.00R
FARIBAULT      PTCLDY    68  63  83 CALM      29.98R
OWATONNA       CLEAR     66  57  72 N7        29.98R HAZE
WASECA           N/A     66  59  77 N5        30.00R HAZE
ALBERT LEA     CLEAR     66  59  77 N8        29.98R HAZE
$$
MNZ078>079-086>088-094>096-070200-
   Southeast Minnesota

CITY           SKY/WX    TMP DP  RH WIND       PRES   REMARKS
ROCHESTER      CLOUDY    64  57  78 N10       29.97R SMOKE
RED WING       CLEAR     68  59  73 N3        29.95R HAZE
DODGE CENTER   CLEAR     66  57  72 N8        29.98R HAZE
WINONA           N/A     66  55  68 N8        29.94R HAZE
AUSTIN         CLEAR     66  59  77 N6        29.97R HAZE
PRESTON          N/A     64  56  76 N9        29.96R HAZE
$$
ABBREVIATIONS USED IN REMARKS
   TC - TEMPERATURES IN CELSIUS
  WCI - WIND CHILL INDEX
   HX - HEAT INDEX
  VSB - VISIBILITY
$$


USA.gov is the U.S. government's official web portal to all federal, state and local government web resources and services.